Theta_e
302 302 303 302 304 307 306 304 305 306 309 309 309 313 315 314 313 316 314 315 314 313 345 345 346 345 345 350 353 352 360 362 357 358 362 357 361 357 354 356 353 352 352 350 348
301 302 302 302 304 307 307 306 304 308 309 308 310 314 315 314 317 316 314 312 312 327 343 345 346 344 346 350 355 357 362 359 352 355 357 357 360 359 358 357 356 353 350 348 348
301 301 302 302 304 307 307 306 305 308 308 308 313 311 312 315 318 320 318 324 318 324 335 340 340 342 343 347 353 355 361 355 353 355 356 357 359 357 358 360 356 357 353 349 348
301 301 302 302 305 306 305 305 307 308 308 312 315 311 312 318 320 318 319 320 322 325 332 334 337 339 340 345 347 353 353 356 354 352 356 358 357 358 357 357 354 353 351 349 350
301 301 301 302 306 305 306 307 307 307 308 316 313 311 318 319 314 318 326 327 328 325 332 335 335 334 333 336 339 348 352 354 353 352 352 352 355 358 358 356 352 351 350 350 350
301 301 301 303 306 306 306 306 306 307 312 315 312 312 319 316 315 318 326 326 322 323 331 329 330 329 329 331 334 339 341 348 352 354 352 354 353 356 357 354 354 352 351 350 349
300 300 301 306 306 306 307 306 307 308 315 313 316 318 319 318 317 317 325 325 327 325 329 326 327 328 326 329 333 334 342 342 346 353 354 352 355 355 356 354 355 353 351 349 348
300 300 301 309 307 307 307 307 310 314 311 316 318 321 318 315 317 316 320 325 329 328 325 327 324 328 325 325 324 328 331 339 345 350 351 351 356 354 355 356 356 354 352 350 348
300 300 301 310 307 307 307 311 314 310 314 319 323 320 315 312 313 312 314 324 326 323 324 324 323 327 328 324 323 325 329 333 353 350 351 352 355 357 354 356 357 355 352 350 349
299 300 301 310 307 308 308 309 309 319 319 320 319 320 313 313 312 312 315 323 326 325 320 321 323 324 324 324 326 326 328 332 348 351 351 354 355 357 355 356 357 356 353 351 351
301 301 302 310 307 308 311 311 317 314 313 312 312 312 312 312 313 315 320 324 324 328 322 320 323 323 323 323 324 326 328 330 341 348 352 353 353 359 356 356 357 357 355 352 351
306 304 302 309 307 308 311 313 312 311 314 311 310 311 310 310 314 314 319 325 323 325 322 320 320 322 323 322 322 323 329 332 332 343 351 352 352 351 358 355 356 357 356 353 351
307 306 302 309 306 310 311 310 310 310 313 312 311 311 311 311 313 313 317 322 326 324 322 322 322 320 320 322 322 322 324 329 332 335 342 350 353 352 353 356 354 354 354 353 352
306 306 303 309 308 311 311 310 310 310 313 312 311 310 311 311 312 312 316 317 322 327 325 323 323 321 320 321 321 322 321 322 329 334 341 345 356 352 351 358 357 355 355 354 352
306 306 305 309 312 313 311 310 309 308 312 310 311 310 311 312 312 313 316 318 319 321 326 326 324 324 322 322 321 321 321 321 322 330 334 340 350 348 349 355 359 357 354 353 352
307 305 309 311 312 310 310 309 308 313 312 311 311 310 312 312 311 313 315 317 319 320 322 324 325 325 325 324 322 322 321 321 321 321 330 335 342 347 349 350 352 356 354 353 351
307 306 309 310 312 309 310 310 314 313 311 312 312 311 311 312 311 313 315 316 317 318 319 321 322 324 325 325 325 322 323 326 325 322 320 328 336 340 342 346 347 351 354 354 354
306 307 308 308 309 309 311 315 316 313 312 310 310 311 311 311 311 311 313 314 316 316 317 320 320 320 323 326 326 324 325 326 328 326 323 322 329 335 337 339 344 347 352 354 355
305 310 311 310 308 308 315 318 316 313 312 312 311 312 312 310 311 311 312 313 315 315 316 319 319 322 323 323 326 327 327 325 326 327 327 324 323 328 334 337 339 342 347 350 352
307 311 310 309 308 311 316 314 314 312 312 312 313 312 313 312 311 312 312 314 315 313 313 315 315 318 322 322 324 326 327 327 327 329 331 329 327 324 333 337 338 340 340 346 349
308 315 309 309 309 315 317 315 313 312 312 313 313 313 313 312 311 312 312 312 313 313 313 313 313 314 315 322 323 325 327 328 327 327 329 330 328 327 328 331 337 338 340 341 348
309 314 309 310 315 314 315 312 307 312 311 312 312 312 312 312 312 312 311 311 311 312 312 313 313 315 314 316 323 323 326 327 330 331 328 330 329 327 328 329 333 337 339 340 342
311 311 309 312 316 314 312 311 311 311 312 312 312 311 310 311 312 311 311 311 312 311 312 314 312 314 314 313 315 319 323 327 327 329 332 332 330 329 330 333 331 333 336 340 341
312 316 313 312 311 312 312 312 312 310 311 311 312 311 312 312 312 312 311 310 312 311 313 312 310 313 314 314 314 320 324 324 326 330 331 332 332 331 330 331 334 336 336 337 340
312 312 310 314 311 312 311 312 312 311 310 310 312 311 311 312 311 311 311 310 310 310 312 313 313 312 311 310 310 312 314 317 321 326 330 330 331 333 331 330 331 333 336 336 334
314 313 311 309 310 310 311 311 311 311 310 311 311 311 312 314 312 313 311 311 311 310 312 313 314 311 311 310 309 309 311 314 316 322 324 326 329 330 333 333 338 338 342 342 341
309 308 311 309 311 313 312 311 312 311 311 310 310 311 311 311 311 310 310 310 311 311 313 312 312 312 311 309 311 313 314 317 318 320 322 326 327 329 331 334 341 340 339 340 340
Wind_Speed
26 26 25 27 25 22 18 16 13 13 14 15 15 12 9 6 6 5 9 5 10 15 22 22 20 17 19 12 8 3 6 5 2 4 7 11 7 8 7 11 7 10 5 24 34
28 28 28 29 27 24 20 18 14 12 15 16 13 9 6 5 6 11 7 4 10 26 24 26 19 19 13 14 6 8 6 3 6 5 4 11 12 12 10 13 8 9 11 34 35
28 29 29 30 28 26 21 18 14 13 14 15 10 6 3 1 6 7 3 10 11 29 24 23 20 17 13 12 13 10 5 1 3 4 14 11 9 9 10 10 11 15 23 30 33
30 31 30 31 29 26 21 16 14 14 14 11 9 6 1 3 1 2 12 10 18 23 23 22 20 19 14 12 15 10 12 6 4 7 5 8 11 8 10 8 10 16 24 29 29
31 32 33 32 28 23 19 17 16 17 10 6 7 3 2 5 2 9 11 2 29 27 27 21 20 18 16 14 8 17 9 5 7 5 5 6 6 4 9 6 12 19 24 28 26
32 33 34 32 26 20 21 21 21 13 5 4 4 4 4 3 3 9 5 14 24 27 25 22 15 16 9 8 16 3 16 12 5 10 7 7 6 8 5 10 15 20 25 27 27
32 34 35 32 23 21 22 19 12 6 3 3 3 2 4 6 2 6 4 11 18 22 20 21 8 16 5 10 11 13 9 9 16 14 8 7 10 10 13 13 16 19 22 25 24
32 34 36 31 21 19 20 12 7 5 4 5 4 3 5 2 2 3 4 13 16 8 18 12 9 17 7 2 6 15 15 14 16 16 9 11 10 13 14 15 17 19 21 24 25
33 34 35 29 17 18 14 6 5 7 5 5 2 6 5 1 1 2 3 11 16 10 9 11 10 11 14 12 11 13 14 18 12 15 10 14 6 14 14 15 17 18 21 22 23
33 34 34 27 13 16 14 3 4 4 3 4 5 5 9 7 5 1 4 14 12 15 9 15 10 12 13 15 15 16 18 14 17 15 18 16 7 11 13 14 17 18 20 22 23
33 32 32 25 9 11 12 5 4 5 3 5 5 3 5 6 4 6 9 9 10 18 14 14 15 20 20 18 17 8 12 18 14 11 15 17 14 14 13 14 16 18 20 22 24
33 31 29 23 3 8 9 5 6 5 4 2 1 2 2 2 2 9 7 7 11 15 16 12 19 18 16 14 14 16 12 14 14 10 9 17 18 14 16 16 18 19 20 22 22
32 31 26 18 1 4 7 7 6 2 6 6 1 2 4 4 4 9 4 2 11 16 18 18 5 19 15 15 17 19 19 12 14 12 9 17 17 16 16 15 16 17 18 19 23
33 32 21 7 3 4 1 10 9 7 5 9 6 3 2 1 3 6 5 5 7 12 15 17 20 7 18 20 18 20 18 16 13 11 14 21 15 21 19 19 19 19 20 21 22
34 30 11 4 4 3 9 12 0 5 5 4 4 3 2 1 3 4 4 4 10 9 10 11 12 19 17 17 20 16 14 14 17 15 15 16 13 16 24 19 21 21 22 22 23
32 22 4 2 1 6 12 5 5 6 3 5 2 0 3 3 2 3 2 1 2 9 14 17 6 14 23 18 11 13 16 14 15 16 18 23 18 18 18 22 22 21 22 23 23
32 7 7 6 6 14 9 5 5 6 2 4 1 1 1 3 2 4 3 3 5 8 15 17 17 17 14 17 20 17 17 10 11 14 21 23 21 18 18 19 21 19 22 23 23
26 5 6 5 15 9 6 6 6 4 2 2 2 2 5 1 3 1 3 5 3 6 10 9 14 20 18 21 19 23 21 12 20 16 19 23 25 23 26 15 18 19 19 21 22
14 2 6 16 10 4 7 7 6 2 4 4 6 8 6 4 5 4 2 4 1 4 6 5 12 3 7 14 20 20 23 25 25 16 16 18 20 18 23 28 14 15 16 19 21
6 3 13 19 6 6 6 4 1 3 5 4 7 1 5 7 5 3 2 5 4 1 5 3 8 8 4 7 19 20 17 21 18 22 22 17 20 20 19 22 26 24 18 18 18
3 3 16 17 5 4 3 4 1 3 6 4 6 8 8 7 6 9 4 5 3 4 4 5 6 6 5 12 19 17 22 18 20 18 19 18 15 14 21 26 23 24 23 19 17
4 1 20 13 0 2 4 4 1 4 3 4 6 9 11 9 9 8 7 4 3 3 6 3 6 12 17 14 8 14 14 27 16 28 22 16 15 7 9 19 21 22 22 23 21
3 3 13 8 3 5 5 5 2 4 4 3 3 3 2 8 5 8 9 1 5 7 4 4 6 9 16 18 18 17 16 19 19 22 26 20 19 9 7 7 17 19 20 17 18
3 0 4 8 7 9 2 5 3 3 4 6 8 7 8 10 10 6 6 5 7 10 4 2 12 11 13 10 10 5 10 7 17 18 21 21 18 24 16 8 7 7 5 7 9
4 4 4 5 8 7 4 5 4 5 5 10 4 5 9 6 9 12 13 11 9 7 9 7 14 13 14 15 14 16 18 17 19 18 22 20 22 17 18 19 14 14 5 4 5
3 2 5 2 3 3 8 7 5 6 3 6 5 8 9 10 10 13 10 11 13 10 13 11 13 11 15 17 18 20 21 20 21 20 19 23 23 20 9 7 10 9 6 7 5
6 6 1 1 4 4 3 3 5 9 4 8 11 7 10 12 14 10 13 15 12 8 13 12 11 11 15 13 11 16 22 22 22 20 20 23 19 19 9 12 8 7 7 7 6
Wind_Direction
9 6 1 357 353 347 337 336 330 328 327 323 316 309 304 297 328 236 233 215 193 170 153 158 167 174 180 202 224 260 253 229 175 252 110 138 145 135 89 149 169 177 159 144 152
7 3 360 356 351 345 335 332 330 331 331 327 320 311 292 287 255 243 241 223 188 164 172 171 173 171 194 200 202 224 265 322 27 44 163 157 165 154 167 158 153 158 119 143 155
5 1 359 356 350 343 336 331 333 330 332 327 321 314 275 229 255 107 266 274 185 174 184 180 172 180 197 208 206 217 253 280 75 57 135 166 166 176 160 182 171 165 148 153 160
2 359 358 356 350 344 341 338 337 326 330 322 325 322 84 231 149 91 332 235 191 180 187 188 183 193 204 202 210 249 223 261 23 142 124 155 149 162 182 70 145 155 157 159 166
360 358 355 354 349 349 349 341 333 322 329 315 313 324 135 209 63 345 2 162 169 176 186 183 190 198 211 212 215 231 254 243 215 188 161 160 167 154 187 122 138 148 162 168 168
359 357 353 351 348 350 342 335 323 325 339 315 304 149 235 186 2 5 47 143 168 181 186 191 199 208 245 220 218 203 241 251 218 204 190 231 158 192 143 142 147 158 167 172 172
357 355 353 351 346 346 342 339 333 352 0 54 104 153 218 64 25 7 83 170 173 186 189 196 223 199 219 219 228 237 262 222 229 225 229 231 206 204 134 152 155 165 170 174 175
357 353 352 351 346 346 344 352 6 55 10 126 94 270 77 54 318 71 96 151 176 196 198 190 230 217 235 4 216 224 230 250 207 196 210 229 191 151 159 160 161 168 174 177 179
355 353 352 351 347 347 352 8 19 19 76 75 275 276 84 329 357 84 144 168 170 169 196 188 207 212 209 232 222 204 221 214 166 193 189 211 188 146 169 169 165 171 177 180 182
354 352 351 350 349 353 346 359 337 15 348 246 267 229 57 30 48 53 142 148 157 174 178 196 211 210 218 211 212 209 221 214 220 183 208 202 201 157 176 178 171 176 179 187 188
353 350 349 349 353 6 9 293 240 180 27 6 11 30 64 11 33 70 152 173 172 179 193 195 208 214 214 219 244 309 242 229 210 203 209 218 215 169 183 189 179 182 184 189 192
352 351 347 347 10 17 14 55 51 339 292 117 298 263 18 357 167 59 174 204 174 187 199 187 227 222 233 222 232 241 241 233 240 205 208 228 219 185 184 198 190 188 189 192 190
351 349 343 345 112 24 41 53 336 269 252 164 67 347 22 300 51 33 322 209 215 215 201 214 228 220 220 224 221 229 232 229 238 203 217 257 232 219 183 201 192 194 195 194 192
348 346 337 350 202 348 60 337 326 192 257 137 185 80 341 221 130 28 16 288 221 228 212 234 239 208 213 224 214 232 220 240 247 249 233 213 234 209 204 200 199 196 197 194 195
347 344 332 354 338 352 325 326 291 207 252 93 118 25 350 343 12 66 13 227 260 220 218 217 221 220 220 227 220 242 243 220 236 247 261 239 235 234 195 199 204 205 200 199 196
347 344 3 15 248 352 328 319 201 224 197 125 116 355 202 64 82 1 10 231 314 269 230 257 239 243 227 228 227 221 231 233 230 238 240 229 230 226 213 208 204 200 206 201 199
348 16 37 18 345 324 319 233 231 255 105 114 93 314 11 51 86 9 13 53 287 242 224 220 235 230 242 225 215 210 204 210 210 215 234 223 229 233 225 203 222 207 204 201 200
348 121 4 8 327 306 262 241 250 46 341 80 275 251 281 290 150 296 241 229 124 278 281 259 227 216 206 229 211 215 217 218 217 212 228 222 230 222 238 271 212 225 200 202 201
359 219 351 344 334 284 246 235 9 16 2 296 260 266 198 199 282 255 241 292 334 328 260 278 235 39 290 234 237 207 222 231 255 237 246 217 219 240 217 221 214 224 216 197 203
338 210 19 345 329 236 241 42 48 23 330 270 277 221 261 189 259 201 204 119 144 357 313 88 269 246 243 279 252 254 236 218 234 237 238 227 233 215 209 215 218 219 214 213 205
276 209 2 345 282 240 308 48 5 30 342 296 298 279 274 284 258 279 294 133 258 154 278 290 242 213 247 219 228 215 237 243 234 226 234 239 222 227 212 213 224 221 219 210 202
308 161 356 339 106 20 44 4 335 358 3 303 288 281 282 293 270 257 260 275 80 271 250 233 288 256 250 252 291 300 277 222 231 222 234 261 232 137 229 220 216 226 215 222 219
23 26 12 353 44 63 85 67 5 339 341 324 275 251 250 263 258 242 264 316 197 236 258 177 235 260 240 236 242 251 248 249 250 247 225 224 231 268 196 255 223 223 230 214 221
294 151 77 69 59 65 44 38 9 10 321 317 295 273 269 259 247 266 250 207 227 250 82 270 262 255 274 355 351 282 267 280 261 242 243 236 235 215 230 229 217 231 255 251 217
352 56 349 31 47 29 23 359 359 16 353 321 260 276 302 276 268 253 253 246 217 202 221 249 258 258 264 282 276 267 261 257 260 260 254 239 233 236 226 241 258 251 281 271 253
23 46 75 102 39 4 29 18 334 348 281 291 274 304 328 279 279 291 313 275 260 243 225 233 259 266 269 270 264 263 257 247 249 250 256 262 270 242 219 305 284 269 293 266 249
61 77 247 32 34 354 38 326 306 322 237 256 308 297 270 257 270 268 280 275 241 248 247 235 254 247 261 265 274 269 246 241 239 230 233 236 238 257 274 261 276 287 273 272 264